This is the latest recevied weather packets stored in our database for station/object KF4UQS-14. If no packets are shown the sender has not sent any weather packets the latest 1 day(s).
| Time | Temp. | Humidity | Pressure | Rain* | Wind** | Luminosity | Snow |
|---|---|---|---|---|---|---|---|
| 1778005791 | 27.22° C | 40% | 1015.8 hPa | 0 mm | 4.47 m/s, 194° | 734 W/m² | - |
| 1778005488 | 27.22° C | 38% | 1016.1 hPa | 0 mm | 5.81 m/s, 156° | 737 W/m² | - |
| 1778005184 | 27.22° C | 38% | 1016.1 hPa | 0 mm | 5.81 m/s, 195° | 745 W/m² | - |
| 1778004882 | 27.78° C | 40% | 1015.9 hPa | 0 mm | 4.47 m/s, 205° | 751 W/m² | - |
| 1778004579 | 27.22° C | 39% | 1016.2 hPa | 0 mm | 4.02 m/s, 203° | 757 W/m² | - |
| 1778004275 | 27.22° C | 40% | 1016.1 hPa | 0 mm | 4.02 m/s, 220° | 761 W/m² | - |
| 1778003972 | 27.22° C | 43% | 1016.1 hPa | 0 mm | 3.58 m/s, 216° | 765 W/m² | - |
| 1778003668 | 27.78° C | 41% | 1016.1 hPa | 0 mm | 3.58 m/s, 191° | 767 W/m² | - |
| 1778003364 | 27.22° C | 43% | 1016 hPa | 0 mm | 3.58 m/s, 192° | 772 W/m² | - |
| 1778003062 | 27.22° C | 43% | 1016 hPa | 0 mm | 2.68 m/s, 181° | 774 W/m² | - |
| 1778002758 | 26.67° C | 45% | 1016.2 hPa | 0 mm | 3.58 m/s, 212° | 771 W/m² | - |
| 1778002454 | 26.67° C | 43% | 1016 hPa | 0 mm | 4.47 m/s, 203° | 777 W/m² | - |
| 1778002152 | 26.67° C | 41% | 1016.2 hPa | 0 mm | 4.02 m/s, 197° | 781 W/m² | - |
| 1778001850 | 26.67° C | 43% | 1016.1 hPa | 0 mm | 4.02 m/s, 175° | 787 W/m² | - |
| 1778001549 | 27.22° C | 42% | 1016.4 hPa | 0 mm | 4.02 m/s, 242° | 784 W/m² | - |
| 1778001246 | 27.22° C | 43% | 1016.5 hPa | 0 mm | 2.68 m/s, 232° | 786 W/m² | - |
| 1778000943 | 27.22° C | 41% | 1016.5 hPa | 0 mm | 4.02 m/s, 184° | 790 W/m² | - |
| 1778000639 | 26.67° C | 44% | 1016.5 hPa | 0 mm | 3.58 m/s, 203° | 787 W/m² | - |
| 1778000334 | 26.67° C | 44% | 1016.5 hPa | 0 mm | 4.02 m/s, 196° | 788 W/m² | - |
| 1778000030 | 26.67° C | 44% | 1016.7 hPa | 0 mm | 4.02 m/s, 211° | 787 W/m² | - |
| 1777999726 | 27.22° C | 43% | 1016.7 hPa | 0 mm | 3.58 m/s, 242° | 787 W/m² | - |
| 1777999422 | 26.67° C | 44% | 1016.7 hPa | 0 mm | 0.89 m/s, 188° | 780 W/m² | - |
| 1777999121 | 26.11° C | 43% | 1016.5 hPa | 0 mm | 3.58 m/s, 242° | 783 W/m² | - |
| 1777998819 | 26.67° C | 43% | 1016.7 hPa | 0 mm | 4.02 m/s, 174° | 780 W/m² | - |
| 1777998518 | 26.11° C | 45% | 1016.6 hPa | 0 mm | 3.13 m/s, 256° | 778 W/m² | - |
* Rain latest hour (hover to see other rain measurements)
** Current wind speed in m/s (hover to see current wind gust speed)